WGS F8 (USA 272)

Last updated on Thu Mar 05 2026 00:02:58 GMT+0000 (Coordinated Universal Time)

1 41879U 16075A 26063.42891916 -.00000214 00000+0 00000+0 0 9991 2 41879 0.0083 162.7764 0000266 281.9080 21.6980 1.00270672 33778
UTC large
Height (km)
Speed (km/s)
/
Latitude / Longitude
Inclination (degrees)
Orbital Period (minutes)
Azimuth
Elevation
Range (km)
Doppler Factor

Next 0 passes for location: London (51.5072 / 0.1276)

Sorry there are no passes over London.